�v������,,���ԉ��x,�����t���O,���Ԏ��x,�����t���O,���ʏ�,�����t���O,��Q��,�����t���O,�{�C���[,�����t���O,30��,����,�����t���O
2003/11/1,0:00:00,23.8,0,42.2,0,24.2,0,23.4,0,26.4,0,2003/11/1 0:00,18.2,0
2003/11/1,0:10:00,23.7,0,42.4,0,24.2,0,23.4,0,25.9,0,2003/11/1 0:30,18.3,0
2003/11/1,0:20:00,23.6,0,42.7,0,24.1,0,23.3,0,25.4,0,2003/11/1 1:00,18.5,0
2003/11/1,0:30:00,23.4,0,42.8,0,24.1,0,23.3,0,25.1,0,2003/11/1 1:30,18.6,0
2003/11/1,0:40:00,23.4,0,42.7,0,24,0,23.3,0,24.8,0,2003/11/1 2:00,18.6,0
2003/11/1,0:50:00,23.3,0,42.8,0,24,0,23.2,0,24.6,0,2003/11/1 2:30,18.7,0
2003/11/1,1:00:00,23.2,0,42.9,0,23.9,0,23.2,0,24.5,0,2003/11/1 3:00,18.8,0
2003/11/1,1:10:00,23.2,0,42.9,0,23.9,0,23.1,0,24.4,0,2003/11/1 3:30,18.9,0
2003/11/1,1:20:00,23.1,0,42.9,0,23.8,0,23.1,0,24.3,0,2003/11/1 4:00,19,0
2003/11/1,1:30:00,23,0,43,0,23.8,0,23.1,0,24.2,0,2003/11/1 4:30,19,0
2003/11/1,1:40:00,23,0,43.1,0,23.7,0,23,0,24.1,0,2003/11/1 5:00,19.2,0
2003/11/1,1:50:00,23,0,43.2,0,23.7,0,23,0,24,0,2003/11/1 5:30,19.2,0
2003/11/1,2:00:00,22.9,0,43.3,0,23.6,0,23,0,23.9,0,2003/11/1 6:00,19.3,0
2003/11/1,2:10:00,22.9,0,43.3,0,23.6,0,23,0,23.9,0,2003/11/1 6:30,19.4,0
2003/11/1,2:20:00,22.9,0,43.4,0,23.6,0,23,0,23.8,0,2003/11/1 7:00,14.6,0
2003/11/1,2:30:00,22.8,0,43.5,0,23.5,0,22.9,0,23.8,0,2003/11/1 7:30,14.8,0
2003/11/1,2:40:00,22.8,0,43.4,0,23.5,0,22.9,0,23.7,0,2003/11/1 8:00,15.1,0
2003/11/1,2:50:00,22.8,0,43.4,0,23.5,0,22.9,0,23.6,0,2003/11/1 8:30,15.3,0
2003/11/1,3:00:00,22.8,0,43.5,0,23.4,0,22.9,0,23.6,0,2003/11/1 9:00,15.5,0
2003/11/1,3:10:00,22.7,0,43.4,0,23.4,0,22.9,0,23.6,0,2003/11/1 9:30,15.6,0
2003/11/1,3:20:00,22.7,0,43.4,0,23.4,0,22.8,0,23.5,0,2003/11/1 10:00,15.9,0
2003/11/1,3:30:00,22.7,0,43.3,0,23.3,0,22.8,0,23.5,0,2003/11/1 10:30,16,0
2003/11/1,3:40:00,22.7,0,43.3,0,23.3,0,22.8,0,23.5,0,2003/11/1 11:00,16.3,0
2003/11/1,3:50:00,22.7,0,43.3,0,23.3,0,22.8,0,23.4,0,2003/11/1 11:30,16.5,0
2003/11/1,4:00:00,22.7,0,43.1,0,23.3,0,22.8,0,23.4,0,2003/11/1 12:00,16.5,0
2003/11/1,4:10:00,22.6,0,43.2,0,23.2,0,22.7,0,23.3,0,2003/11/1 12:30,16.7,0
2003/11/1,4:20:00,22.6,0,43.3,0,23.2,0,22.7,0,23.3,0,2003/11/1 13:00,16.9,0
2003/11/1,4:30:00,22.6,0,43.2,0,23.2,0,22.7,0,23.3,0,2003/11/1 13:30,17,0
2003/11/1,4:40:00,22.6,0,43.2,0,23.1,0,22.7,0,23.2,0,2003/11/1 14:00,17.2,0
2003/11/1,4:50:00,22.6,0,43.1,0,23.1,0,22.7,0,23.2,0,2003/11/1 14:30,17.4,0
2003/11/1,5:00:00,22.5,0,43,0,23.1,0,22.7,0,23.2,0,2003/11/1 15:00,17.5,0
2003/11/1,5:10:00,22.5,0,43,0,23.1,0,22.6,0,23.2,0,2003/11/1 15:30,17.7,0
2003/11/1,5:20:00,22.5,0,43,0,23.1,0,22.6,0,23.1,0,2003/11/1 16:00,17.9,0
2003/11/1,5:30:00,22.5,0,43,0,23.1,0,22.6,0,23.1,0,2003/11/1 16:30,18.1,0
2003/11/1,5:40:00,22.5,0,43,0,23.1,0,22.6,0,23.1,0,2003/11/1 17:00,18.2,0
2003/11/1,5:50:00,22.5,0,43,0,23.1,0,22.6,0,23.1,0,2003/11/1 17:30,18.3,0
2003/11/1,6:00:00,22.5,0,43.5,0,23.2,0,22.6,0,30.4,0,2003/11/1 18:00,18.6,0
2003/11/1,6:10:00,22.7,0,44,0,23.5,0,22.7,0,32.5,0,2003/11/1 18:30,18.6,0
2003/11/1,6:20:00,22.8,0,44.6,0,23.6,0,22.7,0,31.6,0,2003/11/1 19:00,18.8,0
2003/11/1,6:30:00,22.8,0,44.9,0,23.6,0,22.8,0,29.3,0,2003/11/1 19:30,17.9,0
2003/11/1,6:40:00,22.9,0,45,0,23.6,0,22.8,0,28.1,0,2003/11/1 20:00,18,0
2003/11/1,6:50:00,22.9,0,44.7,0,23.6,0,22.8,0,28.3,0,2003/11/1 20:30,18.1,0
2003/11/1,7:00:00,22.9,0,44.6,0,23.8,0,22.9,0,32.5,0,2003/11/1 21:00,18.2,0
2003/11/1,7:10:00,23,0,45.3,0,23.8,0,22.9,0,30.1,0,2003/11/1 21:30,18.3,0
2003/11/1,7:20:00,23,0,45.2,0,23.8,0,22.9,0,28.2,0,2003/11/1 22:00,18.5,0
2003/11/1,7:30:00,23,0,45.2,0,23.8,0,22.9,0,27.2,0,2003/11/1 22:30,13.9,0
2003/11/1,7:40:00,22.9,0,45,0,23.7,0,22.9,0,26.6,0,2003/11/1 23:00,14.1,0
2003/11/1,7:50:00,22.9,0,44.8,0,23.7,0,22.9,0,31.8,0,2003/11/1 23:30,14.5,0
2003/11/1,8:00:00,22.9,0,44.8,0,23.7,0,22.9,0,30.2,0,2003/11/2 0:00,14.6,0
2003/11/1,8:10:00,22.9,0,44.7,0,23.7,0,22.9,0,28.6,0,2003/11/2 0:30,14.8,0
2003/11/1,8:20:00,22.8,0,44.6,0,23.7,0,22.9,0,27.5,0,2003/11/2 1:00,15.1,0
2003/11/1,8:30:00,22.8,0,44.6,0,23.6,0,22.9,0,26.8,0,2003/11/2 1:30,15.3,0
2003/11/1,8:40:00,22.8,0,44.4,0,23.7,0,22.9,0,31.7,0,2003/11/2 2:00,15.5,0
2003/11/1,8:50:00,22.8,0,44.4,0,23.6,0,22.9,0,30,0,2003/11/2 2:30,15.6,0
2003/11/1,9:00:00,22.8,0,44.3,0,23.6,0,22.9,0,28.5,0,2003/11/2 3:00,15.9,0
2003/11/1,9:10:00,22.8,0,44.2,0,23.6,0,22.9,0,27.5,0,2003/11/2 3:30,16,0
2003/11/1,9:20:00,22.8,0,44.1,0,23.6,0,22.8,0,26.7,0,2003/11/2 4:00,16.3,0
2003/11/1,9:30:00,22.8,0,44.1,0,23.6,0,22.8,0,31,0,2003/11/2 4:30,16.5,0
2003/11/1,9:40:00,22.8,0,44.1,0,23.6,0,22.8,0,30.2,0,2003/11/2 5:00,16.5,0
2003/11/1,9:50:00,22.8,0,44.1,0,23.6,0,22.8,0,28.7,0,2003/11/2 5:30,16.7,0
2003/11/1,10:00:00,22.8,0,44,0,23.6,0,22.8,0,27.7,0,2003/11/2 6:00,17.8,0
2003/11/1,10:10:00,22.8,0,44.1,0,23.6,0,22.8,0,26.8,0,2003/11/2 6:30,17.8,0
2003/11/1,10:20:00,22.8,0,44,0,23.6,0,22.8,0,26.1,0,2003/11/2 7:00,17.9,0
2003/11/1,10:30:00,22.9,0,44,0,23.6,0,22.8,0,30.6,0,2003/11/2 7:30,14.7,0
2003/11/1,10:40:00,22.9,0,43.9,0,23.7,0,22.9,0,30.6,0,2003/11/2 8:00,15,0
2003/11/1,10:50:00,23,0,43.9,0,23.7,0,22.9,0,29,0,2003/11/2 8:30,15.1,0
2003/11/1,11:00:00,23,0,43.8,0,23.7,0,22.9,0,27.9,0,2003/11/2 9:00,15.5,0
2003/11/1,11:10:00,23.1,0,43.8,0,23.7,0,22.9,0,27.1,0,2003/11/2 9:30,15.6,0
2003/11/1,11:20:00,23.2,0,43.7,0,23.7,0,22.9,0,26.4,0,2003/11/2 10:00,15.8,0
2003/11/1,11:30:00,23.3,0,43.5,0,23.8,0,23,0,31.3,0,2003/11/2 10:30,16.1,0
2003/11/1,11:40:00,23.4,0,43.3,0,23.9,0,23,0,30.6,0,2003/11/2 11:00,16.1,0
2003/11/1,11:50:00,23.4,0,43.3,0,23.9,0,23.1,0,29.1,0,2003/11/2 11:30,16.4,0
2003/11/1,12:00:00,23.5,0,43.2,0,23.9,0,23.1,0,28,0,2003/11/2 12:00,16.5,0
2003/11/1,12:10:00,23.6,0,43.1,0,24,0,23.2,0,27.2,0,2003/11/2 12:30,16.7,0
2003/11/1,12:20:00,23.6,0,43.1,0,24,0,23.2,0,26.7,0,2003/11/2 13:00,17,0
2003/11/1,12:30:00,23.7,0,42.9,0,24,0,23.2,0,26.2,0,2003/11/2 13:30,17.1,0
2003/11/1,12:40:00,23.8,0,42.9,0,24.1,0,23.3,0,25.9,0,2003/11/2 14:00,17.3,0
2003/11/1,12:50:00,23.9,0,42.8,0,24.1,0,23.3,0,25.6,0,2003/11/2 14:30,17.5,0
2003/11/1,13:00:00,23.9,0,42.8,0,24.1,0,23.4,0,25.3,0,2003/11/2 15:00,17.6,0
2003/11/1,13:10:00,24,0,42.7,0,24.2,0,23.4,0,25.2,0,2003/11/2 15:30,17.8,0
2003/11/1,13:20:00,24,0,42.8,0,24.2,0,23.5,0,25,0,2003/11/2 16:00,18,0
2003/11/1,13:30:00,24.1,0,42.8,0,24.3,0,23.6,0,24.9,0,2003/11/2 16:30,18.1,0
2003/11/1,13:40:00,24.1,0,42.8,0,24.3,0,23.6,0,24.9,0,2003/11/2 17:00,18.2,0
2003/11/1,13:50:00,24.2,0,42.8,0,24.4,0,23.7,0,24.8,0,2003/11/2 17:30,18.4,0
2003/11/1,14:00:00,24.2,0,42.8,0,24.5,0,23.7,0,24.8,0,2003/11/2 18:00,18.5,0
2003/11/1,14:10:00,24.2,0,42.9,0,24.5,0,23.7,0,24.8,0,2003/11/2 18:30,18.7,0
2003/11/1,14:20:00,24.2,0,42.9,0,24.6,0,23.8,0,24.7,0,2003/11/2 19:00,18.7,0
2003/11/1,14:30:00,24.2,0,43,0,24.6,0,23.8,0,24.7,0,2003/11/2 19:30,18.9,0
2003/11/1,14:40:00,24.2,0,43,0,24.7,0,23.8,0,24.7,0,2003/11/2 20:00,14.4,0
2003/11/1,14:50:00,24.3,0,43.1,0,24.7,0,23.8,0,24.7,0,2003/11/2 20:30,14.7,0
2003/11/1,15:00:00,24.2,0,43.1,0,24.7,0,23.9,0,24.6,0,2003/11/2 21:00,14.9,0
2003/11/1,15:10:00,24.2,0,43.2,0,24.8,0,23.9,0,24.6,0,2003/11/2 21:30,15.1,0
2003/11/1,15:20:00,24.2,0,43.2,0,24.8,0,23.8,0,24.5,0,2003/11/2 22:00,15.3,0
2003/11/1,15:30:00,24.2,0,43.4,0,24.8,0,23.8,0,24.5,0,2003/11/2 22:30,13.3,0
2003/11/1,15:40:00,24.1,0,43.5,0,24.7,0,23.8,0,24.5,0,2003/11/2 23:00,13,0
2003/11/1,15:50:00,24,0,43.5,0,24.7,0,23.8,0,24.5,0,2003/11/2 23:30,13.3,0
2003/11/1,16:00:00,24,0,43.7,0,24.7,0,23.8,0,27.2,0,2003/11/3 0:00,13.9,0
2003/11/1,16:10:00,23.9,0,43.8,0,24.7,0,23.7,0,30.9,0,2003/11/3 0:30,14.7,0
2003/11/1,16:20:00,23.8,0,43.9,0,24.7,0,23.7,0,29.5,0,2003/11/3 1:00,15.8,0
2003/11/1,16:30:00,23.8,0,44.1,0,24.7,0,23.7,0,28.4,0,2003/11/3 1:30,16.8,0
2003/11/1,16:40:00,23.7,0,44.2,0,24.6,0,23.6,0,27.5,0,2003/11/3 2:00,17.6,0
2003/11/1,16:50:00,23.7,0,44.3,0,24.6,0,23.6,0,26.8,0,2003/11/3 2:30,18.3,0
2003/11/1,17:00:00,23.6,0,44.4,0,24.5,0,23.5,0,26.2,0,2003/11/3 3:00,18.7,0
2003/11/1,17:10:00,23.5,0,44.5,0,24.5,0,23.5,0,25.8,0,2003/11/3 3:30,19,0
2003/11/1,17:20:00,23.5,0,44.5,0,24.5,0,23.5,0,31.2,0,2003/11/3 4:00,19.4,0
2003/11/1,17:30:00,23.5,0,44.6,0,24.4,0,23.4,0,29.8,0,2003/11/3 4:30,19.7,0
2003/11/1,17:40:00,23.5,0,44.6,0,24.4,0,23.4,0,28.5,0,2003/11/3 5:00,19.9,0
2003/11/1,17:50:00,23.4,0,44.6,0,24.3,0,23.4,0,27.6,0,2003/11/3 5:30,20.1,0
2003/11/1,18:00:00,23.4,0,44.7,0,24.3,0,23.4,0,26.9,0,2003/11/3 6:00,20.3,0
2003/11/1,18:10:00,23.4,0,44.6,0,24.2,0,23.3,0,26.3,0,2003/11/3 6:30,20.4,0
2003/11/1,18:20:00,23.3,0,44.6,0,24.2,0,23.3,0,25.9,0,2003/11/3 7:00,14.9,0
2003/11/1,18:30:00,23.3,0,44.6,0,24.2,0,23.3,0,30.9,0,2003/11/3 7:30,15.2,0
2003/11/1,18:40:00,23.3,0,44.5,0,24.1,0,23.3,0,29.5,0,2003/11/3 8:00,15.7,0
2003/11/1,18:50:00,23.3,0,44.5,0,24.1,0,23.3,0,28.4,0,2003/11/3 8:30,12.8,0
2003/11/1,19:00:00,23.3,0,44.3,0,24.1,0,23.2,0,27.4,0,2003/11/3 9:00,12.7,0
2003/11/1,19:10:00,22.8,0,40.2,0,24,0,22.9,0,29.2,0,2003/11/3 9:30,13.5,0
2003/11/1,19:20:00,22.5,0,39.8,0,23.9,0,22.6,0,30.3,0,2003/11/3 10:00,13.6,0
2003/11/1,19:30:00,22,0,40.5,0,23.5,0,22,0,30.5,0,2003/11/3 10:30,13.6,0
2003/11/1,19:40:00,22,0,41,0,23.4,0,22,0,30.7,0,2003/11/3 11:00,13.9,0
2003/11/1,19:50:00,22.4,0,41,0,23.4,0,22.1,0,30.7,0,2003/11/3 11:30,13.2,0
2003/11/1,20:00:00,22.6,0,41.4,0,23.6,0,22.3,0,28.8,0,2003/11/3 12:00,13.3,0
2003/11/1,20:10:00,22.7,0,44,0,23.7,0,22.4,0,27.9,0,2003/11/3 12:30,13.5,0
2003/11/1,20:20:00,22.9,0,44.9,0,23.9,0,22.5,0,27.4,0,2003/11/3 13:00,13.8,0
2003/11/1,20:30:00,23,0,45.2,0,24.1,0,22.6,0,26.9,0,2003/11/3 13:30,13,0
2003/11/1,20:40:00,23,0,45.6,0,24.2,0,22.7,0,26.3,0,2003/11/3 14:00,13.4,0
2003/11/1,20:50:00,23.1,0,46.4,0,24.3,0,22.8,0,29.1,0,2003/11/3 14:30,13.6,0
2003/11/1,21:00:00,23.2,0,48.5,0,24.4,0,22.9,0,30,0,2003/11/3 15:00,13.9,0
2003/11/1,21:10:00,23.2,0,51.7,0,24.5,0,22.9,0,29.4,0,2003/11/3 15:30,15.3,0
2003/11/1,21:20:00,23.3,0,51.2,0,24.5,0,23,0,32.2,0,2003/11/3 16:00,14.7,0
2003/11/1,21:30:00,23.3,0,52,0,24.6,0,23.1,0,30.3,0,2003/11/3 16:30,14.8,0
2003/11/1,21:40:00,23.3,0,51.1,0,24.6,0,23.1,0,29.2,0,2003/11/3 17:00,15.1,0
2003/11/1,21:50:00,23.3,0,50.6,0,24.6,0,23.2,0,30.6,0,2003/11/3 17:30,15.3,0
2003/11/1,22:00:00,23.3,0,50.1,0,24.6,0,23.2,0,29.1,0,2003/11/3 18:00,15.4,0
2003/11/1,22:10:00,23.3,0,48.9,0,24.6,0,23.2,0,27.9,0,2003/11/3 18:30,15.7,0
2003/11/1,22:20:00,23.3,0,49.6,0,24.6,0,23.2,0,30.7,0,2003/11/3 19:00,15.8,0
2003/11/1,22:30:00,23.3,0,50.2,0,24.5,0,23.2,0,29.3,0,2003/11/3 19:30,16,0
2003/11/1,22:40:00,23.3,0,50.1,0,24.4,0,23.2,0,28.2,0,2003/11/3 20:00,16.2,0
2003/11/1,22:50:00,23.3,0,50.1,0,24.3,0,23.2,0,27.4,0,2003/11/3 20:30,14.5,0
2003/11/1,23:00:00,23.2,0,49.7,0,24.3,0,23.3,0,26.8,0,2003/11/3 21:00,14.7,0
2003/11/1,23:10:00,23.2,0,49.3,0,24.2,0,23.3,0,26.4,0,2003/11/3 21:30,13.6,0
2003/11/1,23:20:00,23.2,0,48.9,0,24.2,0,23.3,0,26,0,2003/11/3 22:00,14.1,0
2003/11/1,23:30:00,23.2,0,48.5,0,24.1,0,23.3,0,25.7,0,2003/11/3 22:30,14.3,0
2003/11/1,23:40:00,23.1,0,47.7,0,24.1,0,23.2,0,25.4,0,2003/11/3 23:00,12.6,0
2003/11/1,23:50:00,23.1,0,47.2,0,24,0,23.2,0,25.1,0,2003/11/3 23:30,13,0
2003/11/2,0:00:00,23.1,0,46.8,0,24,0,23.2,0,24.9,0,2003/11/4 0:00,13.3,0
2003/11/2,0:10:00,23.1,0,46.7,0,24,0,23.2,0,24.8,0,2003/11/4 0:30,13.5,0
2003/11/2,0:20:00,23.1,0,46.7,0,23.9,0,23.2,0,24.7,0,2003/11/4 1:00,13.9,0
2003/11/2,0:30:00,23,0,46.3,0,23.9,0,23.2,0,24.6,0,2003/11/4 1:30,14,0
2003/11/2,0:40:00,23,0,46.1,0,23.8,0,23.2,0,24.5,0,2003/11/4 2:00,14.3,0
2003/11/2,0:50:00,23,0,46.1,0,23.8,0,23.2,0,24.4,0,2003/11/4 2:30,14.5,0
2003/11/2,1:00:00,23,0,46,0,23.7,0,23.1,0,24.3,0,2003/11/4 3:00,14.8,0
2003/11/2,1:10:00,23,0,46,0,23.7,0,23.1,0,24.3,0,2003/11/4 3:30,15,0
2003/11/2,1:20:00,23,0,45.9,0,23.6,0,23.1,0,24.2,0,2003/11/4 4:00,15.3,0
2003/11/2,1:30:00,22.9,0,45.8,0,23.6,0,23.1,0,24.2,0,2003/11/4 4:30,15.5,0
2003/11/2,1:40:00,22.9,0,45.7,0,23.6,0,23.1,0,24.1,0,2003/11/4 5:00,15.7,0
2003/11/2,1:50:00,22.9,0,45.7,0,23.6,0,23,0,24.1,0,2003/11/4 5:30,15.9,0
2003/11/2,2:00:00,22.9,0,45.6,0,23.6,0,23,0,24,0,2003/11/4 6:00,16.1,0
2003/11/2,2:10:00,22.9,0,45.7,0,23.5,0,23,0,24,0,2003/11/4 6:30,14.2,0
2003/11/2,2:20:00,22.9,0,45.9,0,23.5,0,23,0,23.9,0,2003/11/4 7:00,14.4,0
2003/11/2,2:30:00,22.9,0,46.1,0,23.5,0,23,0,23.9,0,2003/11/4 7:30,13,0
2003/11/2,2:40:00,22.9,0,46.1,0,23.5,0,23,0,23.9,0,2003/11/4 8:00,13.3,0
2003/11/2,2:50:00,22.9,0,46,0,23.5,0,23,0,23.9,0,2003/11/4 8:30,13.5,0
2003/11/2,3:00:00,22.9,0,46,0,23.5,0,23,0,23.8,0,2003/11/4 9:00,13.3,0
2003/11/2,3:10:00,22.9,0,46.1,0,23.5,0,23,0,23.8,0,2003/11/4 9:30,14.1,0
2003/11/2,3:20:00,22.9,0,46.2,0,23.4,0,23,0,23.8,0,2003/11/4 10:00,15.3,0
2003/11/2,3:30:00,22.9,0,46.1,0,23.4,0,23,0,23.7,0,2003/11/4 10:30,13.2,0
2003/11/2,3:40:00,22.9,0,46.2,0,23.4,0,23,0,23.7,0,2003/11/4 11:00,13.5,0
2003/11/2,3:50:00,22.8,0,46.1,0,23.4,0,23,0,23.7,0,2003/11/4 11:30,14.2,0
2003/11/2,4:00:00,22.8,0,46.1,0,23.4,0,23,0,23.7,0,2003/11/4 12:00,13.5,0
2003/11/2,4:10:00,22.8,0,46.1,0,23.4,0,22.9,0,23.6,0,2003/11/4 12:30,14.2,0
2003/11/2,4:20:00,22.8,0,46.1,0,23.4,0,22.9,0,23.6,0,2003/11/4 13:00,15.5,0
2003/11/2,4:30:00,22.8,0,46.1,0,23.4,0,22.9,0,23.6,0,2003/11/4 13:30,16.3,0
2003/11/2,4:40:00,22.8,0,46,0,23.4,0,22.9,0,23.6,0,2003/11/4 14:00,14,0
2003/11/2,4:50:00,22.8,0,46.1,0,23.4,0,22.9,0,23.6,0,2003/11/4 14:30,14.4,0
2003/11/2,5:00:00,22.8,0,46.1,0,23.4,0,22.9,0,23.5,0,2003/11/4 15:00,15.7,0
2003/11/2,5:10:00,22.8,0,46,0,23.4,0,22.9,0,23.5,0,2003/11/4 15:30,16.4,0
2003/11/2,5:20:00,22.8,0,46.1,0,23.3,0,22.9,0,23.5,0,2003/11/4 16:00,17,0
2003/11/2,5:30:00,22.8,0,46,0,23.3,0,22.9,0,23.5,0,2003/11/4 16:30,17.3,0
2003/11/2,5:40:00,22.8,0,46,0,23.3,0,22.9,0,23.5,0,2003/11/4 17:00,14.2,0
2003/11/2,5:50:00,22.8,0,46,0,23.3,0,22.9,0,23.5,0,2003/11/4 17:30,15,0
2003/11/2,6:00:00,22.8,0,46.1,0,23.4,0,22.9,0,27.4,0,2003/11/4 18:00,15.6,0
2003/11/2,6:10:00,22.9,0,47.6,0,23.7,0,22.9,0,31.3,0,2003/11/4 18:30,15.8,0
2003/11/2,6:20:00,23.4,0,47.1,0,23.8,0,23.1,0,30.4,0,2003/11/4 19:00,16,0
2003/11/2,6:30:00,24.5,0,44.4,0,23.9,0,23.5,0,29.2,0,2003/11/4 19:30,13,0
2003/11/2,6:40:00,25,0,42.8,0,24,0,23.7,0,28.2,0,2003/11/4 20:00,14.2,0
2003/11/2,6:50:00,25.4,0,41.8,0,24.1,0,23.9,0,27.3,0,2003/11/4 20:30,15.7,0
2003/11/2,7:00:00,25.3,0,42,0,24.2,0,24,0,26.7,0,2003/11/4 21:00,13.2,0
2003/11/2,7:10:00,25.1,0,42.8,0,24.4,0,24.1,0,26.2,0,2003/11/4 21:30,13.5,0
2003/11/2,7:20:00,25.5,0,42,0,24.6,0,24.2,0,25.8,0,2003/11/4 22:00,14.3,0
2003/11/2,7:30:00,25.6,0,41.7,0,24.7,0,24.4,0,25.6,0,2003/11/4 22:30,15.3,0
2003/11/2,7:40:00,24.9,0,43.2,0,24.6,0,24.2,0,25.2,0,2003/11/4 23:00,16.1,0
2003/11/2,7:50:00,24.5,0,44.1,0,24.5,0,24.1,0,24.9,0,2003/11/4 23:30,15.9,0
2003/11/2,8:00:00,24.2,0,44.7,0,24.5,0,23.9,0,24.8,0,2003/11/5 0:00,16.1,0
2003/11/2,8:10:00,24.1,0,45,0,24.4,0,23.8,0,24.7,0,2003/11/5 0:30,16.2,0
2003/11/2,8:20:00,23.9,0,45.2,0,24.3,0,23.7,0,24.6,0,2003/11/5 1:00,16.3,0
2003/11/2,8:30:00,23.8,0,45.4,0,24.2,0,23.7,0,24.5,0,2003/11/5 1:30,16.5,0
2003/11/2,8:40:00,23.7,0,45.5,0,24.2,0,23.6,0,24.4,0,2003/11/5 2:00,16.6,0
2003/11/2,8:50:00,23.6,0,45.5,0,24.1,0,23.5,0,24.3,0,2003/11/5 2:30,16.9,0
2003/11/2,9:00:00,23.6,0,45.6,0,24,0,23.5,0,24.2,0,2003/11/5 3:00,17,0
2003/11/2,9:10:00,23.5,0,45.7,0,24,0,23.4,0,24.2,0,2003/11/5 3:30,17.2,0
2003/11/2,9:20:00,23.5,0,45.8,0,23.9,0,23.4,0,24.2,0,2003/11/5 4:00,17.3,0
2003/11/2,9:30:00,23.4,0,45.8,0,23.9,0,23.3,0,24.1,0,2003/11/5 4:30,17.4,0
2003/11/2,9:40:00,23.4,0,45.9,0,23.9,0,23.3,0,24.1,0,2003/11/5 5:00,17.5,0
2003/11/2,9:50:00,23.4,0,45.9,0,23.8,0,23.3,0,24,0,2003/11/5 5:30,17.7,0
2003/11/2,10:00:00,23.4,0,45.9,0,23.8,0,23.2,0,24,0,2003/11/5 6:00,17.9,0
2003/11/2,10:10:00,23.4,0,45.9,0,23.8,0,23.2,0,24,0,2003/11/5 6:30,18.1,0
2003/11/2,10:20:00,23.4,0,45.9,0,23.7,0,23.2,0,23.9,0,2003/11/5 7:00,15.6,0
2003/11/2,10:30:00,23.4,0,45.9,0,23.7,0,23.2,0,23.9,0,2003/11/5 7:30,13,0
2003/11/2,10:40:00,23.4,0,45.9,0,23.7,0,23.2,0,23.9,0,2003/11/5 8:00,13.3,0
2003/11/2,10:50:00,23.4,0,45.8,0,23.7,0,23.2,0,23.9,0,2003/11/5 8:30,13.5,0
2003/11/2,11:00:00,23.4,0,45.7,0,23.7,0,23.2,0,23.9,0,2003/11/5 9:00,13.5,0
2003/11/2,11:10:00,23.5,0,45.6,0,23.7,0,23.2,0,23.8,0,2003/11/5 9:30,13.8,0
2003/11/2,11:20:00,23.5,0,45.5,0,23.7,0,23.2,0,23.8,0,2003/11/5 10:00,14.6,0
2003/11/2,11:30:00,23.6,0,45.4,0,23.7,0,23.2,0,23.8,0,2003/11/5 10:30,13.4,0
2003/11/2,11:40:00,23.6,0,45.3,0,23.8,0,23.2,0,23.8,0,2003/11/5 11:00,13.9,0
2003/11/2,11:50:00,23.7,0,45.2,0,23.8,0,23.3,0,23.8,0,2003/11/5 11:30,14.9,0
2003/11/2,12:00:00,23.8,0,45.1,0,23.8,0,23.3,0,23.8,0,2003/11/5 12:00,15.7,0
2003/11/2,12:10:00,23.8,0,45,0,23.9,0,23.3,0,23.8,0,2003/11/5 12:30,16.3,0
2003/11/2,12:20:00,23.9,0,44.9,0,23.9,0,23.4,0,23.8,0,2003/11/5 13:00,16.6,0
2003/11/2,12:30:00,24,0,44.8,0,23.9,0,23.4,0,23.8,0,2003/11/5 13:30,16.6,0
2003/11/2,12:40:00,24,0,44.7,0,24,0,23.5,0,23.8,0,2003/11/5 14:00,14.9,0
2003/11/2,12:50:00,24.1,0,44.7,0,24,0,23.5,0,23.8,0,2003/11/5 14:30,15.7,0
2003/11/2,13:00:00,24.2,0,44.6,0,24.1,0,23.6,0,23.8,0,2003/11/5 15:00,16.5,0
2003/11/2,13:10:00,24.2,0,44.6,0,24.2,0,23.6,0,23.8,0,2003/11/5 15:30,14.2,0
2003/11/2,13:20:00,24.3,0,44.5,0,24.2,0,23.7,0,23.8,0,2003/11/5 16:00,14.6,0
2003/11/2,13:30:00,24.3,0,44.6,0,24.3,0,23.7,0,23.8,0,2003/11/5 16:30,15.4,0
2003/11/2,13:40:00,24.4,0,44.5,0,24.3,0,23.8,0,23.8,0,2003/11/5 17:00,16.4,0
2003/11/2,13:50:00,24.4,0,44.5,0,24.4,0,23.8,0,23.8,0,2003/11/5 17:30,13.2,0
2003/11/2,14:00:00,24.4,0,44.5,0,24.5,0,23.9,0,23.9,0,2003/11/5 18:00,13.9,0
2003/11/2,14:10:00,24.4,0,44.6,0,24.5,0,23.9,0,23.9,0,2003/11/5 18:30,14.6,0
2003/11/2,14:20:00,24.5,0,44.6,0,24.6,0,23.9,0,23.9,0,2003/11/5 19:00,15.5,0
2003/11/2,14:30:00,24.5,0,44.7,0,24.6,0,23.9,0,23.9,0,2003/11/5 19:30,15.9,0
2003/11/2,14:40:00,24.4,0,44.8,0,24.7,0,24,0,23.9,0,2003/11/5 20:00,16.3,0
2003/11/2,14:50:00,24.4,0,44.8,0,24.7,0,24,0,23.9,0,2003/11/5 20:30,13.5,0
2003/11/2,15:00:00,24.4,0,44.9,0,24.7,0,24,0,24,0,2003/11/5 21:00,14,0
2003/11/2,15:10:00,24.4,0,45,0,24.8,0,24,0,24,0,2003/11/5 21:30,14.4,0
2003/11/2,15:20:00,24.3,0,45.1,0,24.8,0,24,0,24,0,2003/11/5 22:00,14.6,0
2003/11/2,15:30:00,24.3,0,45.2,0,24.8,0,24,0,24,0,2003/11/5 22:30,14.8,0
2003/11/2,15:40:00,24.2,0,45.4,0,24.8,0,23.9,0,24,0,2003/11/5 23:00,15.4,0
2003/11/2,15:50:00,24.2,0,45.5,0,24.8,0,23.9,0,23.9,0,2003/11/5 23:30,13.5,0
2003/11/2,16:00:00,24.1,0,45.6,0,24.7,0,23.9,0,23.9,0,2003/11/6 0:00,14,0
2003/11/2,16:10:00,24,0,45.7,0,24.7,0,23.8,0,23.9,0,2003/11/6 0:30,14.4,0
2003/11/2,16:20:00,23.9,0,45.9,0,24.7,0,23.8,0,23.9,0,2003/11/6 1:00,15.3,0
2003/11/2,16:30:00,23.9,0,46,0,24.6,0,23.8,0,23.9,0,2003/11/6 1:30,16.1,0
2003/11/2,16:40:00,23.8,0,46.2,0,24.6,0,23.7,0,23.9,0,2003/11/6 2:00,16.9,0
2003/11/2,16:50:00,23.8,0,46.2,0,24.5,0,23.7,0,23.9,0,2003/11/6 2:30,17.6,0
2003/11/2,17:00:00,23.7,0,46.2,0,24.5,0,23.6,0,23.9,0,2003/11/6 3:00,18.1,0
2003/11/2,17:10:00,23.7,0,46.2,0,24.4,0,23.6,0,23.8,0,2003/11/6 3:30,18.5,0
2003/11/2,17:20:00,23.7,0,46.2,0,24.3,0,23.6,0,23.8,0,2003/11/6 4:00,18.9,0
2003/11/2,17:30:00,23.7,0,46.2,0,24.3,0,23.5,0,23.8,0,2003/11/6 4:30,19.2,0
2003/11/2,17:40:00,23.6,0,46.1,0,24.3,0,23.5,0,23.8,0,2003/11/6 5:00,19.4,0
2003/11/2,17:50:00,23.6,0,46.2,0,24.2,0,23.5,0,23.8,0,2003/11/6 5:30,19.7,0
2003/11/2,18:00:00,23.6,0,46.2,0,24.2,0,23.5,0,23.8,0,2003/11/6 6:00,19.9,0
2003/11/2,18:10:00,23.5,0,46.4,0,24.1,0,23.4,0,23.8,0,2003/11/6 6:30,19.9,0
2003/11/2,18:20:00,23.6,0,46.6,0,24.1,0,23.4,0,23.7,0,2003/11/6 7:00,14.4,0
2003/11/2,18:30:00,23.5,0,46.7,0,24.1,0,23.4,0,23.7,0,2003/11/6 7:30,12.6,0
2003/11/2,18:40:00,23.5,0,46.6,0,24.1,0,23.4,0,23.7,0,2003/11/6 8:00,12.9,0
2003/11/2,18:50:00,23.5,0,46.6,0,24.1,0,23.4,0,23.7,0,2003/11/6 8:30,13.2,0
2003/11/2,19:00:00,23.5,0,46.6,0,24.1,0,23.4,0,23.7,0,2003/11/6 9:00,13.5,0
2003/11/2,19:10:00,23.5,0,46.6,0,24,0,23.4,0,23.7,0,2003/11/6 9:30,13.3,0
2003/11/2,19:20:00,23.5,0,46.6,0,24,0,23.3,0,23.7,0,2003/11/6 10:00,13.8,0
2003/11/2,19:30:00,23.4,0,46.5,0,24,0,23.3,0,23.7,0,2003/11/6 10:30,14.2,0
2003/11/2,19:40:00,23.4,0,46.5,0,23.9,0,23.3,0,23.6,0,2003/11/6 11:00,15.1,0
2003/11/2,19:50:00,23.5,0,46.7,0,23.9,0,23.3,0,23.6,0,2003/11/6 11:30,14,0
2003/11/2,20:00:00,23.5,0,46.6,0,23.9,0,23.3,0,23.7,0,2003/11/6 12:00,14.1,0
2003/11/2,20:10:00,23.5,0,47,0,24,0,23.3,0,23.9,0,2003/11/6 12:30,14.4,0
2003/11/2,20:20:00,23.6,0,47.2,0,24,0,23.3,0,24,0,2003/11/6 13:00,14.5,0
2003/11/2,20:30:00,23.6,0,47.4,0,24,0,23.3,0,24.1,0,2003/11/6 13:30,14.8,0
2003/11/2,20:40:00,23.7,0,47.4,0,24.1,0,23.4,0,32.3,0,2003/11/6 14:00,15,0
2003/11/2,20:50:00,23.7,0,48.1,0,24.2,0,23.5,0,31.2,0,2003/11/6 14:30,15.3,0
2003/11/2,21:00:00,23.8,0,48.7,0,24.4,0,23.5,0,29.5,0,2003/11/6 15:00,15.5,0
2003/11/2,21:10:00,23.8,0,48.7,0,24.5,0,23.5,0,28.1,0,2003/11/6 15:30,15.7,0
2003/11/2,21:20:00,23.8,0,48.7,0,24.7,0,23.5,0,27.4,0,2003/11/6 16:00,16,0
2003/11/2,21:30:00,23.9,0,49.9,0,24.9,0,23.5,0,27.1,0,2003/11/6 16:30,14.8,0
2003/11/2,21:40:00,23.9,0,51.7,0,25.1,0,23.5,0,26.6,0,2003/11/6 17:00,15.4,0
2003/11/2,21:50:00,23.9,0,51.5,0,25.2,0,23.5,0,26.2,0,2003/11/6 17:30,16.2,0
2003/11/2,22:00:00,23.9,0,51.1,0,25.2,0,23.6,0,26,0,2003/11/6 18:00,16.6,0
2003/11/2,22:10:00,23.9,0,51,0,25.3,0,23.6,0,25.6,0,2003/11/6 18:30,16.9,0
2003/11/2,22:20:00,24,0,50.5,0,25.4,0,23.6,0,25.3,0,2003/11/6 19:00,17,0
2003/11/2,22:30:00,23.9,0,49.6,0,25.4,0,23.6,0,25,0,2003/11/6 19:30,13.2,0
2003/11/2,22:40:00,23.9,0,50.2,0,25.3,0,23.7,0,24.9,0,2003/11/6 20:00,13.6,0
2003/11/2,22:50:00,23.9,0,50.7,0,25.1,0,23.7,0,24.8,0,2003/11/6 20:30,13.9,0
2003/11/2,23:00:00,23.8,0,51.1,0,25,0,23.7,0,24.7,0,2003/11/6 21:00,14.1,0
2003/11/2,23:10:00,23.8,0,51.3,0,24.9,0,23.7,0,24.6,0,2003/11/6 21:30,14.3,0
2003/11/2,23:20:00,23.8,0,52,0,24.8,0,23.7,0,24.5,0,2003/11/6 22:00,13.2,0
2003/11/2,23:30:00,23.8,0,52.4,0,24.8,0,23.7,0,24.4,0,2003/11/6 22:30,13.7,0
2003/11/2,23:40:00,23.8,0,52.3,0,24.7,0,23.6,0,24.4,0,2003/11/6 23:00,14.2,0
2003/11/2,23:50:00,23.7,0,52.2,0,24.7,0,23.6,0,24.4,0,2003/11/6 23:30,15.4,0
2003/11/3,0:00:00,23.7,0,52.2,0,24.6,0,23.6,0,24.3,0,2003/11/7 0:00,16.5,0
2003/11/3,0:10:00,23.7,0,52.2,0,24.5,0,23.6,0,24.3,0,2003/11/7 0:30,17.4,0
2003/11/3,0:20:00,23.7,0,52.1,0,24.5,0,23.6,0,24.3,0,2003/11/7 1:00,18.1,0
2003/11/3,0:30:00,23.7,0,52.2,0,24.4,0,23.6,0,24.2,0,2003/11/7 1:30,18.6,0
2003/11/3,0:40:00,23.6,0,52,0,24.4,0,23.6,0,24.2,0,2003/11/7 2:00,19,0
2003/11/3,0:50:00,23.6,0,52.1,0,24.4,0,23.6,0,24.2,0,2003/11/7 2:30,19.3,0
2003/11/3,1:00:00,23.6,0,51.9,0,24.4,0,23.5,0,24.2,0,2003/11/7 3:00,19.5,0
2003/11/3,1:10:00,23.6,0,51.8,0,24.3,0,23.5,0,24.1,0,2003/11/7 3:30,19.7,0
2003/11/3,1:20:00,23.6,0,51.7,0,24.3,0,23.5,0,24.1,0,2003/11/7 4:00,19.9,0
2003/11/3,1:30:00,23.6,0,51.6,0,24.2,0,23.5,0,24.1,0,2003/11/7 4:30,20.1,0
2003/11/3,1:40:00,23.6,0,51.8,0,24.2,0,23.5,0,24.1,0,2003/11/7 5:00,20.2,0
2003/11/3,1:50:00,23.5,0,51.7,0,24.2,0,23.5,0,24,0,2003/11/7 5:30,20.4,0
2003/11/3,2:00:00,23.5,0,51.7,0,24.2,0,23.5,0,24,0,2003/11/7 6:00,20.3,0
2003/11/3,2:10:00,23.5,0,51.9,0,24.2,0,23.5,0,24,0,2003/11/7 6:30,20.3,0
2003/11/3,2:20:00,23.5,0,51.9,0,24.2,0,23.5,0,24,0,2003/11/7 7:00,13.3,0
2003/11/3,2:30:00,23.5,0,51.6,0,24.1,0,23.5,0,24,0,2003/11/7 7:30,13.1,0
2003/11/3,2:40:00,23.5,0,51.7,0,24.1,0,23.5,0,24,0,2003/11/7 8:00,13.3,0
2003/11/3,2:50:00,23.5,0,51.9,0,24.1,0,23.5,0,23.9,0,2003/11/7 8:30,13.5,0
2003/11/3,3:00:00,23.5,0,51.8,0,24.1,0,23.5,0,23.9,0,2003/11/7 9:00,13.6,0
2003/11/3,3:10:00,23.5,0,51.8,0,24.1,0,23.5,0,23.9,0,2003/11/7 9:30,13.7,0
2003/11/3,3:20:00,23.5,0,51.9,0,24.1,0,23.4,0,23.9,0,2003/11/7 10:00,14,0
2003/11/3,3:30:00,23.5,0,51.8,0,24,0,23.4,0,23.9,0,2003/11/7 10:30,13.3,0
2003/11/3,3:40:00,23.5,0,51.7,0,24,0,23.4,0,23.9,0,2003/11/7 11:00,13.3,0
2003/11/3,3:50:00,23.5,0,51.9,0,24,0,23.4,0,23.9,0,2003/11/7 11:30,13.7,0
2003/11/3,4:00:00,23.4,0,51.8,0,24,0,23.4,0,23.8,0,2003/11/7 12:00,14.2,0
2003/11/3,4:10:00,23.4,0,51.8,0,24,0,23.4,0,23.8,0,2003/11/7 12:30,15,0